Regional Weather Roundup
Issued by NWS

Home | Current Version | Previous Version | Text Only | Print | Product List | Glossary Off
Versions: 1 2 3 4 5 6 7 8 9 10 11 12 13 14 15 16 17 18 19 20 21 22 23 24 25 26 27 28 29 30 31 32 33 34 35 36 37 38 39 40 41 42 43 44 45 46 47 48 49 50

000
ASUS45 KPSR 301610
RWRAZ

ARIZONA HOURLY REGIONAL WEATHER ROUNDUP
NATIONAL WEATHER SERVICE PHOENIX AZ
900 AM MST SAT JUL 30 2016

NOTE: FAIR INDICATES FEW OR NO CLOUDS BELOW 12,000 FEET WITH NO
SIGNIFICANT WEATHER AND/OR OBSTRUCTIONS TO VISIBILITY.

AZZ001>003-036-301700-
NORTHWEST ARIZONA

CITY           SKY/WX    TMP DP  RH WIND       PRES   REMARKS
KINGMAN        PTSUNNY   81  60  48 SW20      30.05R
$$

AZZ004>008-015-016-018-301700-
NORTH CENTRAL ARIZONA

CITY           SKY/WX    TMP DP  RH WIND       PRES   REMARKS
GRAND CANYON   PTSUNNY   79  48  33 NW8       30.25S
WILLIAMS       PTSUNNY   75  50  41 CALM      30.33S
PRESCOTT       PTSUNNY   80  55  42 CALM      30.13S
FLAGSTAFF      PTSUNNY   72  53  51 SW7       30.26F
PAYSON         PTSUNNY   75  55  50 VRB5      30.18R
PAGE           PTSUNNY   89  44  20 NW7       30.02R
$$

AZZ009>014-017-301700-
NORTHEAST ARIZONA

CITY           SKY/WX    TMP DP  RH WIND       PRES   REMARKS
WINSLOW        MOSUNNY   83  49  30 VRB5      30.11S
SAINT JOHNS    MOSUNNY   76  49  38 CALM      30.19R
WINDOW ROCK    SUNNY     76  49  38 CALM      30.24F
SHOW LOW       PTSUNNY   73  46  38 SW12      30.25S
$$

AZZ023-301700-
GREATER PHOENIX AREA

CITY           SKY/WX    TMP DP  RH WIND       PRES   REMARKS
PHOENIX        PTSUNNY   89  64  43 S10       29.89R
GLENDALE       PTSUNNY   91  64  40 MISG      29.90R
LUKE AFB       PTSUNNY   91  64  40 S12       29.88R
DEER VALLEY    MOSUNNY   88  61  40 S5        29.91R
SCOTTSDALE     MOSUNNY   88  63  43 SE6       29.93R
MESA-GATEWAY   MOSUNNY   86  68  54 SE12      29.93R
CHANDLER       PTSUNNY  N/A N/A N/A SE9       29.91R
$$

AZZ027-028-301700-
SOUTHWEST MARICOPA COUNTY AND PINAL COUNTY

CITY           SKY/WX    TMP DP  RH WIND       PRES   REMARKS
CASA GRANDE    PTSUNNY   84  70  61 SE8       29.94S
GILA BEND      FAIR      84  68  58 SW6       29.89S HAZE
$$

AZZ503-504-507>509-301700-
SOUTHEAST ARIZONA

CITY           SKY/WX    TMP DP  RH WIND       PRES   REMARKS
TUCSON         MOSUNNY   83  67  58 VRB5      30.03R
DAVIS-MONTHAN  SUNNY     80  67  64 W5        30.02R
RYAN FIELD     SUNNY     82  70  65 SW9       30.03R
NOGALES        MOSUNNY   78  65  63 SE5       30.10R
SIERRA VISTA   SUNNY     78  57  49 VRB3      30.15S
DOUGLAS        MOSUNNY   76  63  64 S7        30.11S
SAFFORD        MOSUNNY   82  57  42 VRB5      30.01S
$$

AZZ020-021-025-026-031-301700-
SOUTHWEST ARIZONA

CITY           SKY/WX    TMP DP  RH WIND       PRES   REMARKS
YUMA           CLOUDY    82  76  81 E13       29.82F FOG
$$

CAZ031-033-041-043-047-048-061-301700-
SOUTHERN CALIFORNIA

CITY           SKY/WX    TMP DP  RH WIND       PRES   REMARKS
DOWNTOWN L.A.  CLOUDY    76  65  68 CALM      29.87R
L.A. AIRPORT   MOSUNNY   76  66  71 CALM      29.88R
SAN DIEGO      PTSUNNY   69  64  84 S14       29.91R
BURBANK        CLOUDY    76  61  59 SW3       29.89R
ONTARIO        CLOUDY    76  64  66 SW5       29.90R
RIVERSIDE      CLOUDY    81  62  52 W5        29.89R
PALM SPRINGS   CLOUDY    90  69  50 SE10      29.91F BLWGDUST
EL CENTRO NAS  PTSUNNY   88  71  57 S7        29.85F
IMPERIAL       MOSUNNY   88  73  61 S3        29.83F
BLYTHE         CLOUDY    83  71  67 SW6       29.82R
NEEDLES        SUNNY     95  64  35 NW16      29.83F
$$

NVZ020-UTZ003-301700-
SOUTHERN NEVADA-UTAH

CITY           SKY/WX    TMP DP  RH WIND       PRES   REMARKS
LAS VEGAS      MOSUNNY   93  58  30 S13G18    29.87S HAZE
SALT LAKE CITY MOSUNNY   86  45  23 SE10      29.96S
$$

NMZ009-TXZ055-301700-
NEW MEXICO-WEST TEXAS

CITY           SKY/WX    TMP DP  RH WIND       PRES   REMARKS
ALBUQUERQUE    MOSUNNY   76  53  44 CALM      30.20S
EL PASO        PTSUNNY   82  60  47 SE5       30.09F
$$


........................KEY........................
SKY/WX - SKY CONDITION/WEATHER
TMP    - TEMPERATURE IN FAHRENHEIT
DP     - DEW POINT IN FAHRENHEIT
RH     - RELATIVE HUMIDITY IN PERCENT
WIND   - DIRECTION AND SPEED IN MILES PER HOUR (MPH)
VRB    - VARIABLE WIND DIRECTION
PRES   - MEAN SEA LEVEL PRESSURE IN INCHES OF MERCURY
         F - FALLING PRESSURE   R - RISING PRESSURE
         S - STEADY PRESSURE
VSB    - VISIBILITY IN MILES
HX     - HEAT INDEX IN FAHRENHEIT
WCI    - WIND CHILL INDEX IN FAHRENHEIT
TC     - TEMPERATURE IN CELSIUS WHICH IS ALSO KNOWN AS
         TEMPERATURE IN CENTIGRADE
AFB    - AIR FORCE BASE
         LUKE AFB IS LUKE AIR FORCE BASE
         DAVIS-MONTHAN IS DAVIS-MONTHAN AIR FORCE BASE
NAS    - NAVAL AIR STATION
         EL CENTRO NAS IS EL CENTRO NAVAL AIR STATION
N/A    - NOT AVAILABLE




USA.gov is the U.S. government's official web portal to all federal, state and local government web resources and services.